DELTA 1 DEB, 2224

Orbit data source: Space-Track

DELTA 1 DEB, 2224 is space debris in SSO originally from a launch on Mon, 28 Feb 1966 UTC launched from the Air Force Eastern Test Range (AFETR). Debris objects in space refer to the collection of defunct objects orbiting the Earth. Examples of debris include non-operational satellites, rocket bodies, and fragments generated from explosions, collisions, or faulty payload assembly.

Loading next visibility...
DELTA 1 DEB details
Identifier
2224, 1966-016D
Orbit
SSO
Last TLE update2 days ago
Origin
Flag of USGSFC (US)
ManufacturerUnknown
MissionSpacecraft
Bus & MotorUnknown
Mass1 kg wet, 1 kg dry
Launch date (UTC)
1966-02-28 (59 years ago)
Launch vehicleUnknown
Launch site
Air Force Eastern Test Range (AFETR)
Object type
Payload
Rocket body
Debris
Shape & HBRCyl + 1 Cable, 3.5 m
Radar Cross Section3.500 m², Small (<0.1 m²)

Expand to show TLE details & history

TLE from 2 days ago
0 DELTA 1 DEB
1 02224U 66016D   24354.33176721 -.00000011  00000-0  18555-3 0  9997
2 02224 101.1125 297.1857 0137262 220.1519 294.7304 12.52147781677707
Epoch: 2024-12-19T07:57Z
Definitive object data (Epoch: 2024-12-19T07:57:44.686Z)
Latitude26.05392°
Longitude-85.18044°
Altitude1,414.656 km
Speed7.175 km/s
True Right ascension08h 10m 40s
True Declination25° 55' 48"
Sunlit
Object was in full shadow at TLE epoch
Visualization TLE readout
Latitude52.35756°
Longitude76.7254°
Altitude1,566.013 km
Speed7.043 km/s
Apparent Right ascension21h 34m 21s
Apparent Declination16° 06' 55"
Sunlit
Object is in daylight
Visualization observer readout
Local Sidereal Time12:08:57
Azimuth40.832° NE
Elevation-23.413°
Doppler factor1
Orbital elements
Apogee altitude1,560.523 km
Perigee altitude1,345.539 km
Semi-major axis7,831.168 km
Eccentricity0.0137262
Inclination101.1125°
RAAN297.1857°
Arg. of periapsis220.1519°
True anomaly293.29158°
Mean anomaly294.7304°
Eccentric anomaly294.01201°
Mean motion3.13187 °/min
BSTAR0.00018555
Orbital period114.95 mins
Loading maneuver chart data...
Loading historical data...
Loading historical data...
Loading historical data...
Loading historical data...
Loading historical data...
Loading historical data...
Loading historical data...
Other satellites on launch #16 in the year 1966 (1966-02-28 UTC)

DELTA 1 DEB Visibility forecast

Observer location: undefined°, undefined

Span
Click to sort rows by Start time (UTC) header in descending order
Start Az.
Max El. time (UTC)
Max El. Az.
Max El.
End time (UTC)
End Az.
14 mins2024-12-21 18:43:02.678Z113.892° SE2024-12-21 18:50:02.678Z60.574° ENE27.232°2024-12-21 18:57:02.678Z3.246° NNE
16 mins2024-12-21 20:35:02.678Z175.822° S2024-12-21 20:43:02.678Z272.297° WNW42.404°2024-12-21 20:51:02.678Z337.926° N
14 mins2024-12-22 08:39:02.678Z30.427° NE2024-12-22 08:46:02.678Z103.277° ESE36.616°2024-12-22 08:53:02.678Z171.54° S
12 mins2024-12-22 10:33:02.678Z355.526° N2024-12-22 10:39:02.678Z293.085° NW31.622°2024-12-22 10:45:02.678Z238.396° WSW
|